sat.trackr.live / text

‹ back to catalog

STARLINK-32108

NORAD 59682 · 2024-086A

PAYLOAD ACTIVE UNKNOWN

§ Identity

Operator
Country
US
Launch date
2024-05-08
Launch site
AFETR
Launch vehicle
Mass (kg)
RCS (m²)

Purposes: comms

External: N2YO · Heavens-Above · Gunter

§ Orbital elements

Epoch: 2026-09-21T16:14:00.612672Z

Period
94.27 min
Inclination
43.0063°
Eccentricity
0.0001247
Mean motion
15.27579448 rev/d
Perigee alt
482.2 km
Apogee alt
483.9 km
Semi-major
6,861.2 km
B*
2.2997e-5
RAAN
36.6769°
Arg perigee
271.2281°
Mean anomaly
88.8428°
Rev number
13,403

§ Raw data

STARLINK-321081 59682U 24086A   26264.67639598  .00000371  00000+0  22997-4 0  99962 59682  43.0063  36.6769 0001247 271.2281  88.8428 15.27579448134033

JSON: /api/v1/satellites/59682 · /tle

For live sub-satellite position, see the globe view (requires WebGL).

§ Visibility from observer

Set your observer location to see the next 7 days of passes ≥ 10°. The values pass through the URL so the page stays shareable.

No JS? Fill the form by hand. The geolocation button needs JavaScript.